CAPE
964 915 1116 1114 157 22 62 125 39 82 123 127 202 123 154 135 140 47 458 410 1053 1335 1500 2288 2922 2820 2578 2543 2372 2202 2260 2213 2311 1991 1783 1796 1656 1576 1545 1468 1555 1552 1540 1473 1549 1410 1528 1359 1020
723 977 1212 1219 102 16 11 20 109 47 69 235 191 138 120 91 217 397 434 715 1193 1579 1610 1931 2687 3020 2421 2335 2382 2387 2278 2315 2038 1890 1759 1763 1514 1455 1403 1523 1395 1522 1321 1326 1454 1389 1274 1459 1262
588 1048 958 383 54 1 14 10 23 9 107 295 349 144 82 155 232 301 512 776 1287 1652 1818 2148 2447 2892 2311 2325 2461 2503 2209 2198 2361 2005 1765 1681 1534 1484 1634 1692 1651 1485 1427 1357 1429 1407 1360 1357 1184
888 829 535 155 119 15 22 49 47 185 346 431 446 85 137 138 153 252 606 922 1200 1605 1775 2620 2544 2496 2424 2609 2237 2404 2280 2419 2156 1757 1746 1707 1442 1505 1543 1505 1442 1322 1223 1266 1392 1667 1633 1289 947
961 737 10 70 225 102 75 98 249 454 403 371 170 94 106 215 204 548 677 824 1133 1512 1885 2295 2929 2837 2452 2653 2528 2507 2434 2304 1934 1850 1787 1685 1636 1501 1330 1437 1377 1427 1318 1237 1406 1401 1473 1282 863
567 346 30 48 52 230 138 232 399 532 480 304 138 126 127 183 272 436 628 781 1046 1359 1933 2085 2546 2746 2591 2541 2599 2282 2157 2172 1965 1891 1979 1774 1605 1611 1696 1382 1291 1360 1583 1130 1616 1307 1326 1215 937
99 104 48 53 85 256 356 454 445 466 152 165 309 195 211 197 195 182 408 748 965 1414 1763 2006 2104 2257 2393 2018 1775 1615 1737 1808 2170 2128 1861 1551 1672 1579 867 917 1171 1471 961 1038 979 1029 1192 1093 950
71 67 59 37 39 100 422 559 321 238 108 198 207 108 173 191 175 169 365 624 933 1379 1713 1863 1553 1069 1391 1636 2362 2146 2364 1318 1618 1607 1580 1461 1284 938 1008 1497 1717 1147 1132 884 919 1056 1053 1105 908
4 22 25 58 60 77 531 546 338 13 16 167 234 216 138 243 272 421 548 701 1165 1279 1363 1548 1271 1800 1689 1442 1443 2103 2093 2075 2002 1954 2015 1915 1257 1222 1445 1292 1622 1328 1181 937 960 950 842 1243 1285
0 10 41 112 215 214 332 223 139 121 205 358 224 180 149 390 442 469 461 531 693 919 1153 1300 1477 1728 1404 1252 1559 1399 1659 1485 1276 1101 979 1226 935 873 1166 1306 1770 1573 1189 346 283 338 552 672 817
6 39 68 390 385 282 434 288 378 220 289 360 173 154 180 442 490 441 474 643 637 722 819 1215 1342 1406 1094 1209 1343 1291 1376 1213 1048 173 118 431 640 861 955 1048 1119 924 881 402 313 313 383 337 358
15 34 373 710 642 561 485 357 394 214 211 237 181 211 182 233 357 407 502 589 622 595 659 906 1031 1083 1160 1147 1067 1032 1077 1013 773 189 255 475 623 844 753 725 816 398 359 325 257 244 195 293 259
5 18 271 670 616 531 491 399 369 315 167 264 214 219 234 212 206 274 563 485 638 586 624 717 892 891 1011 1023 774 638 779 666 399 273 149 341 643 543 343 559 638 260 175 125 235 211 235 98 84
0 0 1 558 363 649 567 368 420 206 180 266 264 243 266 263 269 346 350 557 618 674 697 636 723 729 891 963 731 448 551 555 528 429 404 302 633 668 290 398 223 511 375 209 247 329 226 104 143
0 1 0 475 450 629 748 566 562 173 169 310 334 330 320 312 292 366 431 477 617 664 725 695 706 895 802 890 597 499 427 427 379 258 340 313 612 452 423 354 408 494 441 508 728 353 308 313 164
0 0 9 186 566 601 681 313 372 275 88 48 134 191 201 296 424 386 418 491 579 692 742 745 732 702 816 994 581 490 442 361 342 307 207 173 349 435 321 151 181 422 319 122 497 483 376 96 127
0 0 1 2 320 656 548 391 539 368 197 135 73 145 154 169 153 413 423 421 491 585 648 672 877 883 921 530 341 217 268 258 264 241 512 439 269 540 425 72 34 142 212 251 40 96 156 282 237
0 0 0 0 55 591 515 507 621 515 376 334 246 203 234 299 283 393 357 333 424 585 581 745 879 782 628 539 265 235 238 233 279 133 363 350 241 582 487 370 8 60 165 237 192 259 436 510 387
0 0 0 0 0 552 582 534 670 638 494 326 192 156 261 297 333 334 312 367 410 540 595 729 923 831 631 473 413 321 255 353 186 108 192 311 295 487 548 620 205 460 389 368 565 410 633 394 286
0 0 0 0 375 505 491 579 683 571 398 141 138 261 323 328 314 255 279 385 531 596 677 709 852 772 696 448 405 350 261 295 67 80 90 282 502 503 652 643 359 650 980 604 759 696 586 190 186
0 0 0 0 310 236 322 271 400 558 349 320 200 210 295 407 390 354 348 464 525 611 712 708 791 702 608 456 284 100 148 158 89 60 595 709 481 689 790 642 602 764 752 495 604 648 315 487 88
0 0 0 92 73 33 62 0 0 98 486 542 501 289 234 376 455 457 459 553 598 653 702 727 712 799 574 527 209 69 121 67 26 261 680 806 965 929 622 806 785 979 604 769 734 787 618 397 52
0 0 30 44 42 4 37 38 0 207 275 290 382 296 154 362 325 412 544 624 645 696 720 654 672 738 611 707 275 175 50 65 27 91 347 849 946 828 390 1167 1038 1076 778 749 869 946 776 584 336
0 0 12 6 11 0 0 53 6 31 68 89 205 205 102 88 366 398 459 622 647 665 750 704 767 767 664 719 358 103 56 95 99 55 201 391 670 564 665 603 1265 985 956 1033 996 1062 959 889 570
0 0 0 0 0 0 11 54 47 10 41 80 74 97 143 53 120 375 370 431 544 565 701 720 754 735 562 592 391 203 210 250 220 332 544 587 548 510 360 164 509 1339 1260 1079 1086 949 1023 907 933
0 0 0 0 0 0 0 3 27 24 100 64 100 135 246 106 160 261 345 524 477 305 722 658 658 691 520 494 350 296 246 303 433 230 594 786 711 679 560 691 854 853 752 1034 1046 1007 1055 1016 955
0 0 0 0 0 0 0 3 54 5 62 47 445 438 486 436 174 368 423 648 685 552 689 733 683 627 514 476 376 340 346 494 620 421 445 539 789 766 583 814 900 752 786 1083 1205 1145 1174 1285 1267
0 0 0 0 0 0 4 31 31 28 27 296 772 753 667 500 431 435 515 686 757 727 685 781 728 671 569 471 439 416 439 577 626 540 471 495 703 783 1061 1253 1094 894 518 542 862 990 1248 1295 1311
0 0 0 0 0 7 7 0 47 149 246 509 877 892 816 680 594 590 628 681 788 925 859 849 769 770 832 722 566 645 640 507 573 554 642 619 694 1029 970 1001 892 493 491 465 492 1282 1352 1175 1201
0 0 9 19 12 26 5 10 183 257 344 609 732 1002 889 764 656 644 609 665 750 876 959 881 884 915 968 960 796 742 864 872 746 766 911 1185 976 933 1448 1067 874 785 880 974 1161 1319 1322 1364 1251
CIN
-214 -206 -94 -94 -40 -27 -89 -49 -84 -33 -41 -77 -68 -28 -75 -117 -118 -62 -167 -190 -78 -25 -5 -0 -0 -0 -0 -4 -2 -3 -0 -3 -2 -5 -4 -2 -2 -3 -4 -5 -4 -0 -2 -2 -0 -3 -4 -8 -15
-79 -79 -126 -77 -31 -18 -2 -40 -84 -44 -48 -90 -30 -57 -114 -170 -191 -185 -148 -106 -58 -16 -3 -2 -0 -0 -0 -1 -1 -0 -0 -1 -1 -2 -3 -0 -2 -4 -2 -2 -4 -1 -3 -4 -0 -0 -7 -9 -4
-66 -88 -79 -39 -25 -7 -42 -42 -48 -110 -56 -89 -76 -73 -139 -163 -200 -171 -150 -98 -33 -8 -2 -2 -0 -0 -0 -0 -0 -0 -0 -0 -0 -0 -0 -0 -0 -0 -0 -1 -0 -0 -0 -6 -0 -0 -6 -3 -4
-75 -126 -93 -24 -1 -15 -9 -51 -94 -107 -71 -68 -42 -50 -151 -144 -192 -182 -129 -72 -38 -13 -3 -0 -0 -0 -0 -0 -1 -0 -0 -0 -0 -0 -0 -0 -0 -0 -0 -0 -0 -0 -6 -4 -1 -0 -1 -2 -4
-99 -81 -37 -37 -44 -11 -32 -107 -138 -72 -70 -21 -43 -74 -126 -113 -124 -158 -117 -75 -53 -15 -1 -0 -0 -0 -0 -0 -0 -0 -0 -0 -0 -0 -0 -0 -0 -0 -0 -0 -0 -0 -0 -0 -0 -0 -0 -0 -16
-76 -101 -66 -73 -86 -83 -50 -105 -67 -43 -37 -61 -38 -119 -75 -120 -156 -143 -114 -73 -60 -53 -0 -0 -0 -0 -0 -0 -0 -0 -0 -0 -0 -0 -0 -0 -0 -0 -0 -0 -0 -0 -0 -0 -0 -0 -0 -1 -9
-175 -89 -62 -110 -98 -49 -26 -101 -100 -65 -30 -42 -99 -83 -106 -95 -36 -148 -116 -72 -64 -32 -1 -0 -1 -0 -0 -0 -1 -10 -0 -0 -0 -0 -0 -0 -0 -0 -4 -0 -0 -0 -12 -11 -16 -2 -1 -3 -17
-105 -97 -106 -20 -27 -69 -81 -86 -109 -80 -22 -41 -72 -90 -130 -104 -114 -23 -109 -73 -49 -25 -5 -1 -5 -18 -3 -0 -0 -0 -0 -7 -0 -0 -0 -0 -0 -5 -0 -0 -0 -3 -4 -5 -7 -1 -7 -2 -15
-43 -40 -27 -17 -106 -18 -73 -30 -38 -44 -40 -49 -56 -58 -62 -142 -96 -69 -53 -29 -12 -13 -18 -10 -22 -1 -2 -10 -29 -1 -0 -0 -0 -0 -0 -0 -0 -0 -1 -6 -0 -0 -0 -1 -2 -5 -13 -2 -0
-0 -55 -42 -46 -20 -29 -63 -58 -18 -86 -83 -81 -69 -59 -55 -123 -86 -63 -71 -67 -55 -38 -21 -14 -10 -0 -2 -11 -6 -19 -2 -10 -25 -23 -18 -10 -11 -13 -14 -10 -0 -0 -0 -3 -17 -16 -6 -8 -7
-114 -43 -136 -132 -31 -58 -89 -90 -91 -123 -85 -112 -66 -51 -100 -99 -75 -70 -87 -91 -111 -92 -69 -28 -22 -11 -26 -24 -19 -22 -12 -16 -18 -56 -50 -48 -35 -26 -27 -23 -23 -25 -18 -39 -49 -50 -26 -44 -57
-0 -38 -99 -82 -122 -83 -106 -84 -86 -35 -72 -92 -68 -47 -137 -121 -96 -71 -77 -64 -93 -110 -99 -62 -40 -34 -34 -35 -36 -34 -27 -28 -44 -79 -6 -9 -22 -40 -44 -42 -29 -46 -50 -38 -62 -69 -46 -49 -50
-29 -6 -68 -112 -128 -100 -126 -79 -89 -116 -139 -149 -105 -56 -55 -99 -106 -87 -51 -108 -81 -89 -113 -85 -59 -73 -51 -42 -60 -72 -51 -58 -64 -74 -35 -13 -36 -27 -45 -59 -48 -51 -77 -36 -82 -61 -44 -68 -91
-0 -0 -26 -74 -98 -71 -94 -56 -54 -84 -147 -106 -84 -58 -43 -48 -56 -54 -65 -90 -82 -74 -92 -58 -87 -78 -68 -47 -44 -85 -60 -41 -37 -49 -41 -12 -11 -36 -26 -56 -40 -54 -60 -34 -38 -35 -68 -36 -45
-0 -7 -0 -82 -69 -61 -80 -60 -97 -59 -102 -58 -55 -52 -34 -28 -21 -90 -105 -109 -94 -88 -80 -70 -86 -68 -64 -50 -44 -68 -64 -44 -40 -39 -34 -9 -14 -18 -52 -37 -62 -52 -124 -94 -41 -33 -42 -45 -12
-0 -0 -5 -52 -54 -94 -53 -32 -84 -51 -58 -9 -28 -43 -59 -24 -30 -36 -58 -76 -82 -83 -65 -60 -79 -105 -54 -33 -54 -65 -57 -42 -41 -30 -59 -36 -19 -40 -29 -49 -67 -33 -39 -23 -74 -52 -72 -38 -26
-0 -0 -8 -26 -66 -96 -42 -31 -219 -102 -201 -254 -75 -40 -31 -30 -63 -54 -25 -49 -118 -96 -84 -92 -96 -78 -55 -48 -27 -98 -71 -37 -29 -37 -29 -31 -97 -19 -15 -27 -84 -29 -20 -40 -35 -40 -174 -54 -31
-0 -0 -0 -0 -75 -88 -53 -37 -134 -63 -63 -94 -117 -89 -33 -38 -31 -77 -52 -53 -130 -104 -88 -102 -101 -61 -52 -22 -59 -98 -69 -60 -43 -8 -16 -30 -33 -53 -18 -9 -18 -31 -27 -31 -40 -48 -66 -70 -105
-0 -0 -0 -0 -0 -61 -49 -44 -206 -97 -103 -289 -273 -201 -70 -44 -25 -83 -74 -125 -184 -144 -106 -124 -84 -50 -48 -37 -89 -87 -82 -36 -32 -27 -14 -15 -12 -81 -13 -10 -30 -26 -38 -28 -44 -40 -60 -44 -59
-0 -0 -0 -0 -92 -55 -108 -85 -191 -76 -261 -42 -312 -125 -104 -58 -29 -24 -29 -183 -178 -123 -114 -119 -69 -52 -51 -71 -81 -64 -58 -32 -59 -7 -9 -6 -41 -86 -18 -17 -20 -38 -23 -39 -35 -27 -52 -37 -68
-0 -0 -0 -0 -119 -103 -90 -85 -179 -252 -286 -340 -311 -217 -125 -72 -49 -32 -30 -115 -185 -154 -115 -77 -75 -53 -65 -75 -60 -55 -38 -25 -79 -5 -77 -55 -89 -50 -40 -29 -17 -32 -45 -29 -13 -18 -19 -18 -27
-0 -0 -0 -54 -38 -32 -132 -0 -0 -187 -293 -293 -287 -222 -259 -93 -60 -36 -52 -47 -57 -194 -122 -85 -77 -46 -27 -51 -54 -87 -69 -36 -64 -18 -21 -48 -70 -28 -44 -36 -42 -14 -40 -13 -15 -26 -37 -27 -41
-0 -0 -74 -40 -48 -13 -140 -121 -0 -266 -279 -352 -249 -242 -329 -103 -55 -135 -108 -67 -61 -197 -121 -125 -78 -30 -46 -35 -48 -65 -102 -70 -64 -35 -61 -32 -30 -17 -19 -45 -30 -26 -34 -22 -5 -27 -26 -23 -27
-0 -0 -59 -59 -83 -1 -0 -166 -9 -264 -208 -291 -367 -261 -240 -91 -78 -58 -142 -66 -42 -182 -174 -122 -89 -46 -78 -47 -65 -94 -134 -95 -69 -106 -58 -38 -12 -11 -17 -19 -45 -46 -34 -24 -17 -16 -14 -14 -23
-0 -0 -0 -0 -0 -0 -69 -133 -118 -28 -66 -64 -48 -55 -290 -286 -69 -59 -67 -124 -230 -170 -145 -141 -86 -69 -92 -70 -84 -102 -97 -55 -47 -63 -43 -16 -56 -25 -20 -18 -133 -36 -27 -26 -28 -27 -18 -17 -29
-0 -0 -0 -0 -0 -0 -0 -117 -25 -80 -111 -167 -80 -51 -43 -458 -78 -58 -183 -258 -106 -174 -214 -66 -123 -90 -88 -116 -102 -106 -80 -62 -38 -74 -27 -28 -39 -34 -32 -61 -71 -40 -81 -49 -32 -22 -27 -14 -38
-0 -0 -0 -0 -0 -0 -0 -35 -102 -61 -80 -170 -120 -60 -39 -28 -385 -54 -177 -295 -170 -246 -237 -160 -154 -132 -116 -106 -91 -40 -100 -64 -36 -36 -41 -41 -22 -17 -48 -23 -29 -90 -95 -51 -36 -40 -16 -20 -15
-0 -0 -0 -0 -0 -0 -7 -36 -52 -77 -99 -121 -57 -59 -49 -43 -52 -39 -286 -289 -236 -215 -206 -136 -179 -24 -153 -115 -54 -98 -92 -73 -41 -57 -52 -46 -51 -53 -28 -49 -58 -55 -47 -31 -25 -92 -37 -29 -14
-0 -0 -0 -0 -0 -8 -7 -0 -228 -44 -48 -61 -63 -43 -46 -46 -29 -20 -14 -205 -194 -194 -139 -193 -186 -231 -213 -166 -78 -111 -84 -83 -50 -60 -69 -51 -89 -51 -37 -49 -32 -42 -27 -23 -18 -54 -28 -35 -24
-0 -0 -24 -12 -31 -24 -31 -32 -199 -338 -389 -436 -66 -48 -32 -41 -49 -35 -8 -185 -173 -195 -156 -27 -221 -239 -211 -161 -112 -20 -81 -61 -72 -94 -84 -35 -39 -45 -26 -16 -25 -22 -24 -19 -24 -35 -45 -27 -20
Wind_Speed
1 3 3 5 3 nan nan 8 nan nan 6 12 11 13 7 3 1 nan 8 8 15 13 10 8 14 16 13 11 10 6 11 12 15 15 17 18 17 15 15 16 15 19 20 19 17 17 18 19 15
6 2 2 4 8 nan nan nan 7 nan nan 12 13 9 5 nan 2 11 8 11 15 10 8 8 11 17 12 10 11 5 14 14 16 16 16 16 12 11 13 14 16 18 18 19 18 15 17 17 15
4 2 2 4 nan nan nan nan nan nan 11 12 15 12 nan 6 7 13 8 14 13 8 7 6 13 13 12 9 11 10 14 17 18 17 17 16 12 11 12 16 17 17 18 19 17 14 15 17 16
4 5 1 3 3 nan nan nan nan 5 7 5 18 nan 5 5 12 12 16 14 12 10 9 8 14 13 11 8 8 11 13 14 15 16 17 14 13 15 16 19 20 18 18 19 20 18 13 16 17
5 8 nan nan 6 0 nan nan 3 3 6 7 8 nan 5 3 15 20 16 12 12 7 2 4 14 13 12 9 7 10 13 14 15 16 15 16 15 16 18 20 20 17 16 18 19 19 16 15 16
6 8 nan nan nan 0 5 5 5 4 9 11 5 8 5 13 20 16 16 11 8 7 4 5 11 12 12 8 3 9 10 14 16 16 15 18 13 14 14 16 18 17 17 18 18 19 15 13 17
nan 8 nan nan nan 1 6 11 5 9 7 8 13 9 3 12 14 16 13 9 6 4 4 3 4 3 8 7 4 9 11 13 18 18 12 11 10 11 11 15 21 19 19 18 16 16 14 13 13
nan nan nan nan nan 3 3 13 6 7 5 6 10 11 9 14 18 13 10 8 3 2 3 2 2 2 2 2 6 11 11 15 17 21 8 9 8 9 12 16 21 22 22 19 14 14 12 14 11
nan nan nan nan nan nan 10 9 4 nan nan 10 8 10 13 19 16 13 8 5 2 1 2 2 3 3 3 1 4 9 13 16 18 14 10 3 3 10 12 14 20 22 22 19 14 13 14 11 11
nan nan nan 8 5 3 7 12 13 9 7 4 9 5 18 19 13 14 12 8 5 3 1 2 3 1 6 4 2 8 7 8 7 2 2 2 7 9 13 16 21 23 21 18 18 22 15 11 6
nan nan nan 10 7 1 7 10 13 16 11 9 16 19 18 19 11 10 9 9 11 6 3 4 3 2 3 4 0 2 4 7 3 4 3 4 7 8 6 10 11 12 19 14 16 15 7 6 6
nan nan 13 11 9 9 11 9 10 15 10 9 10 23 20 16 9 8 8 8 4 5 5 3 6 2 2 1 1 5 4 5 1 3 4 5 4 6 5 6 9 9 11 12 11 11 9 9 7
nan nan 12 11 13 8 15 11 7 10 9 15 15 18 17 11 4 3 6 8 6 3 2 6 5 1 1 2 1 2 4 5 5 2 2 4 6 5 8 7 9 9 12 11 12 11 10 nan nan
nan nan nan 9 8 7 9 9 10 6 12 10 11 13 13 9 3 3 1 5 6 5 5 4 5 3 8 6 4 1 2 3 3 1 1 4 5 4 7 9 9 8 12 11 11 10 10 10 9
nan nan nan 12 5 9 4 8 9 10 13 13 8 7 10 4 3 4 5 4 7 4 5 7 6 8 7 7 6 4 4 4 5 1 2 1 4 6 7 8 11 7 10 8 11 8 7 8 7
nan nan nan 4 11 10 9 3 7 13 nan nan 10 7 5 3 2 2 2 3 3 5 4 9 8 8 8 9 8 6 7 6 5 3 5 1 2 4 4 7 11 9 7 4 7 7 8 nan 8
nan nan nan nan 11 12 9 3 14 13 17 16 nan 8 3 6 5 2 4 4 2 5 10 8 8 8 7 8 9 6 8 7 5 5 7 2 2 5 5 nan nan 8 9 6 nan nan 8 6 8
nan nan nan nan nan 16 15 8 11 13 15 19 23 18 8 11 9 6 9 4 3 5 9 10 7 8 9 10 10 10 11 8 7 7 7 4 1 2 2 4 nan nan 7 6 5 7 4 4 3
nan nan nan nan nan 11 14 15 9 16 13 7 12 11 11 13 7 7 10 6 5 5 10 11 9 5 12 11 10 8 9 10 10 11 8 6 3 2 4 2 3 5 6 6 7 7 3 3 0
nan nan nan nan 16 21 16 17 14 18 15 4 9 5 8 7 12 12 10 7 8 7 7 12 8 8 8 11 10 9 8 10 nan nan nan 7 2 2 1 2 2 4 4 8 9 8 5 3 2
nan nan nan nan 13 10 9 10 6 9 8 10 4 11 12 5 5 11 9 6 8 9 8 9 9 9 7 10 12 11 12 14 nan nan 13 6 3 5 3 1 2 2 3 5 9 7 10 6 nan
nan nan nan nan nan nan nan nan nan nan 4 10 15 9 6 4 4 8 8 8 6 5 7 7 9 9 9 11 10 nan 7 nan nan 12 11 9 7 6 4 4 3 5 4 7 7 6 9 8 nan
nan nan nan nan nan nan nan nan nan 10 7 5 9 6 6 6 3 4 5 9 8 7 6 8 9 9 10 11 7 10 nan nan nan nan 11 11 11 8 6 7 8 6 6 4 5 6 5 5 12
nan nan nan nan nan nan nan nan nan nan nan nan 8 13 9 nan 3 6 8 5 8 8 7 6 8 8 11 10 9 8 nan nan nan nan 10 10 10 9 7 11 15 10 9 6 5 6 4 4 8
nan nan nan nan nan nan nan nan nan nan nan nan nan nan 5 nan 6 6 12 18 24 9 4 6 5 6 9 9 12 10 9 11 9 9 9 10 12 11 7 9 13 12 13 8 6 5 4 3 2
nan nan nan nan nan nan nan nan nan nan 15 nan 2 9 7 4 1 7 14 15 16 6 7 5 4 3 5 8 9 11 11 14 13 12 12 11 11 10 10 9 8 8 8 7 6 7 5 3 3
nan nan nan nan nan nan nan nan nan nan nan nan 2 9 9 4 7 11 18 14 12 11 8 9 6 4 4 3 10 11 12 12 12 12 12 13 14 13 11 8 7 9 11 11 11 9 5 5 4
nan nan nan nan nan nan nan nan nan nan nan 8 6 8 5 2 6 11 18 16 11 16 7 5 4 5 6 6 7 9 9 11 11 13 12 12 13 14 12 11 13 11 11 13 16 10 11 7 7
nan nan nan nan nan nan nan nan nan 6 15 4 5 7 6 10 10 8 9 13 15 12 11 8 6 4 6 6 8 7 6 5 6 7 8 9 11 9 8 9 15 12 12 13 14 14 16 7 9
nan nan nan nan nan nan nan nan 13 12 7 9 3 4 11 10 7 7 9 10 14 12 11 8 9 7 2 3 8 5 4 5 5 6 7 9 9 10 9 10 12 11 12 15 14 14 13 11 10
Wind_Direction
144 154 82 91 7 nan nan 327 nan nan 76 43 24 50 24 167 334 nan 327 320 317 314 315 325 339 336 337 298 294 309 307 318 317 322 324 334 344 339 340 341 349 357 355 350 353 12 19 358 5
231 303 238 34 339 nan nan nan 76 nan nan 49 38 15 58 nan 322 305 300 331 327 309 313 321 336 336 330 305 318 305 324 322 315 318 322 331 331 331 338 340 352 354 354 352 2 15 21 8 2
222 237 248 333 nan nan nan nan nan nan 40 42 46 348 nan 9 313 320 322 327 317 296 283 334 329 333 328 328 333 343 329 326 321 322 330 324 321 343 344 340 344 344 348 354 357 3 9 357 346
286 257 221 254 276 nan nan nan nan 17 122 4 1 nan 356 47 328 317 323 323 307 293 264 335 328 335 333 325 354 353 340 332 320 326 332 346 346 351 350 339 339 336 345 348 355 7 353 358 353
240 264 nan nan 305 33 nan nan 16 317 16 56 338 nan 6 302 299 311 322 323 313 314 222 304 324 335 323 295 345 352 343 343 340 340 335 333 343 350 349 345 343 346 350 350 3 8 5 357 358
211 267 nan nan nan 358 335 330 282 20 345 333 258 4 20 308 314 331 315 327 317 316 282 278 328 335 337 315 293 337 350 351 345 342 348 335 359 358 348 352 358 357 353 352 0 3 18 6 14
nan 247 nan nan nan 350 41 355 28 348 356 22 310 340 9 318 319 321 308 315 311 323 277 258 280 340 354 357 354 335 356 355 349 346 333 354 9 347 346 350 357 353 350 351 5 4 36 26 18
nan nan nan nan nan 69 31 351 328 9 26 44 315 344 346 349 319 302 303 298 329 343 293 313 298 250 226 51 336 338 357 354 353 8 360 8 13 14 10 9 18 16 1 5 27 14 37 24 21
nan nan nan nan nan nan 340 342 42 nan nan 346 345 318 304 319 306 296 305 263 250 72 197 320 296 306 203 106 347 342 0 2 3 23 49 33 57 77 56 31 26 20 14 2 28 24 37 49 13
nan nan nan 341 339 23 328 334 347 355 337 336 310 309 321 318 313 323 345 345 1 27 326 328 313 36 117 109 351 342 355 341 1 109 132 112 64 78 52 38 31 26 22 356 26 48 63 58 59
nan nan nan 320 356 199 299 320 344 345 10 19 16 324 329 314 329 345 356 11 8 33 16 345 339 7 79 145 264 328 325 344 27 97 108 89 78 74 43 18 29 16 13 354 18 48 78 18 53
nan nan 334 325 353 331 315 305 358 355 9 348 326 328 335 332 344 349 2 25 40 15 356 299 282 194 104 174 345 6 355 359 75 87 72 79 85 57 46 19 29 23 352 7 49 50 55 55 80
nan nan 351 349 356 341 324 340 2 13 356 319 320 325 340 342 22 24 7 9 18 27 29 324 343 217 243 253 267 10 3 15 19 268 105 90 73 55 23 16 12 355 9 12 23 48 41 nan nan
nan nan nan 357 357 336 351 333 332 320 323 320 316 320 360 357 333 254 23 33 342 339 6 320 322 283 263 252 264 154 116 359 356 339 154 83 89 47 23 1 10 358 12 6 12 41 49 38 26
nan nan nan 350 358 29 308 314 336 291 314 319 334 317 353 16 223 349 358 4 326 335 334 327 303 277 269 272 263 221 252 308 306 118 126 76 75 41 21 347 337 3 19 356 2 19 24 50 38
nan nan nan 357 356 21 332 2 302 293 nan nan 327 329 294 344 9 90 289 264 284 285 301 268 274 270 264 258 242 223 262 254 266 185 170 336 23 39 36 343 349 348 353 338 341 344 342 nan 33
nan nan nan nan 16 338 338 320 267 276 297 317 nan 331 304 353 316 337 290 279 307 315 291 290 259 279 270 253 252 246 250 249 219 204 181 222 335 10 32 nan nan 347 330 353 nan nan 346 56 29
nan nan nan nan nan 2 348 298 309 326 319 351 333 339 340 338 357 322 275 260 281 316 303 298 276 254 249 238 236 235 238 225 219 199 192 175 190 355 53 319 nan nan 330 329 329 336 356 23 136
nan nan nan nan nan 326 8 352 342 352 346 356 356 322 324 359 309 286 262 254 261 295 310 308 300 284 257 230 240 239 244 236 199 184 183 163 184 9 35 306 332 348 342 325 312 342 2 0 306
nan nan nan nan 358 342 348 17 348 4 33 70 243 293 300 279 284 279 278 282 291 304 315 308 302 276 254 234 228 227 245 225 nan nan nan 183 246 251 111 1 322 344 314 327 339 332 325 340 285
nan nan nan nan 354 4 348 67 343 13 29 17 279 190 221 258 268 278 294 290 277 290 308 311 316 290 256 243 229 200 208 186 nan nan 179 205 250 290 323 312 279 300 322 319 339 339 327 334 nan
nan nan nan nan nan nan nan nan nan nan 34 348 292 289 188 166 333 293 285 298 315 308 294 308 320 294 254 249 228 nan 198 nan nan 187 179 199 233 256 262 297 315 304 299 342 353 340 335 314 nan
nan nan nan nan nan nan nan nan nan 67 52 50 31 309 193 67 138 297 329 3 311 272 269 290 307 287 251 243 232 214 nan nan nan nan 194 200 212 243 269 279 275 283 294 297 308 297 325 319 314
nan nan nan nan nan nan nan nan nan nan nan nan 325 6 8 nan 76 244 271 301 241 242 246 254 282 276 246 246 222 223 nan nan nan nan 215 217 207 225 225 256 272 268 264 274 272 288 331 4 343
nan nan nan nan nan nan nan nan nan nan nan nan nan nan 36 nan 360 292 290 266 287 127 160 274 278 274 253 236 233 221 225 235 239 238 228 241 237 235 259 276 262 257 258 268 273 277 319 348 6
nan nan nan nan nan nan nan nan nan nan 31 nan 87 346 348 348 203 293 310 306 315 16 36 328 327 311 253 235 236 225 223 235 241 248 232 233 250 251 248 277 246 230 249 269 274 259 268 269 302
nan nan nan nan nan nan nan nan nan nan nan nan 87 358 341 342 290 291 301 310 356 358 4 349 351 286 245 220 231 237 236 239 250 257 249 241 246 247 247 255 237 251 262 263 261 263 248 258 259
nan nan nan nan nan nan nan nan nan nan nan 73 173 122 59 18 289 294 291 303 300 329 331 316 328 343 270 244 238 247 261 253 252 249 245 245 243 246 252 236 244 260 264 267 257 248 241 237 237
nan nan nan nan nan nan nan nan nan 28 37 1 155 155 22 337 292 298 283 281 284 288 315 307 296 271 257 258 261 251 238 243 247 247 249 253 252 252 252 244 242 247 265 272 247 256 250 249 233
nan nan nan nan nan nan nan nan 313 332 0 327 224 308 163 202 224 281 290 268 258 269 266 255 253 260 220 233 240 256 238 230 234 237 252 267 275 269 265 262 253 260 258 267 255 251 251 259 263